Date String (YYYY-MM-DD hh:mm:ss) UTC,Instrument flags,Ambient pressure (hPa),Sample flow (lpm),Bypass flow (lpm),Sample temperature (°C),Ambient temperature (°C),ASC tube jacket temperature (°C),LED temperature (°C),Box temperature (°C),Sample RH (%),Span deviation,Mass concentration (μg/m³),Mass concentration (μg/m³),Mass concentration (μg/m³)
DateTimeUTC,F1_M11,P_M11,Q1_M11,Q2_M11,T1_M11,T2_M11,T3_M11,T4_M11,T5_M11,U1_M11,ZSPAN_M11,X0_M11,X2_M11,X1_M11
2022-12-30 23:00:00,,0815.3,5.01,0.00,23.0,21.6,00.0,31.9,24.8,08.9,0000.0,0007.66,0003.56,0003.29
2022-12-30 23:01:00,,0815.5,4.97,0.00,23.0,21.4,00.0,31.9,24.7,09.4,0000.0,0007.57,0003.50,0003.22
2022-12-30 23:02:00,,0815.4,4.97,0.00,22.9,21.2,00.0,31.9,24.6,09.1,0000.0,0007.23,0003.52,0003.25
2022-12-30 23:03:00,,0815.5,5.01,0.00,22.9,21.0,00.0,31.9,24.5,09.0,0000.0,0006.24,0003.58,0003.28
2022-12-30 23:04:00,,0815.7,5.04,0.00,22.9,21.1,00.0,31.9,24.5,09.1,0000.0,0006.69,0003.69,0003.35
2022-12-30 23:05:00,,0816.0,4.98,0.00,22.9,21.1,00.0,31.9,24.6,09.2,0000.0,0007.09,0003.82,0003.46
2022-12-30 23:06:00,,0816.0,5.00,0.00,22.9,21.1,00.0,31.9,24.6,09.5,0000.0,0007.44,0003.97,0003.59
2022-12-30 23:07:00,,0815.9,4.96,0.00,22.9,21.2,00.0,31.8,24.6,09.7,0000.0,0007.70,0004.13,0003.74
2022-12-30 23:08:00,,0815.8,4.97,0.00,22.9,21.3,00.0,31.8,24.6,09.5,0000.0,0008.13,0004.27,0003.90
2022-12-30 23:09:00,,0815.7,5.02,0.00,22.8,21.2,00.0,31.8,24.6,09.3,0000.0,0008.31,0004.35,0004.01
2022-12-30 23:10:00,,0815.7,5.01,0.00,22.8,21.1,00.0,31.8,24.5,09.1,0000.0,0008.59,0004.52,0004.13
2022-12-30 23:11:00,,0815.8,4.99,0.00,22.8,21.1,00.0,31.8,24.5,09.0,0000.0,0009.01,0004.76,0004.33
2022-12-30 23:12:00,,0815.8,4.99,0.00,22.8,21.2,00.0,31.8,24.5,09.1,0000.0,0009.41,0004.91,0004.49
2022-12-30 23:13:00,,0815.8,4.97,0.00,22.8,21.3,00.0,31.8,24.6,09.1,0000.0,0009.42,0004.95,0004.53
2022-12-30 23:14:00,,0815.9,4.99,0.00,22.8,21.4,00.0,31.8,24.6,09.0,0000.0,0009.37,0004.94,0004.55
2022-12-30 23:15:00,,0815.4,5.02,0.00,22.8,21.5,00.0,31.8,24.7,08.9,0000.0,0009.29,0004.90,0004.52
2022-12-30 23:16:00,,0815.5,5.04,0.00,22.9,21.6,00.0,31.8,24.7,09.0,0000.0,0009.32,0004.90,0004.50
2022-12-30 23:17:00,,0816.0,4.96,0.00,22.9,21.7,00.0,31.8,24.8,09.2,0000.0,0009.31,0004.88,0004.49
2022-12-30 23:18:00,,0816.0,5.01,0.00,22.9,21.7,00.0,31.8,24.8,09.4,0000.0,0009.39,0004.92,0004.50
2022-12-30 23:19:00,,0816.0,5.01,0.00,22.9,21.6,00.0,31.8,24.8,09.4,0000.0,0009.26,0004.93,0004.52
2022-12-30 23:20:00,,0815.6,4.99,0.00,22.9,21.6,00.0,31.8,24.7,09.4,0000.0,0009.83,0005.00,0004.58
2022-12-30 23:21:00,,0815.8,4.97,0.00,22.9,21.6,00.0,31.8,24.7,09.3,0000.0,0010.88,0005.05,0004.66
2022-12-30 23:22:00,,0815.9,4.97,0.00,22.9,21.5,00.0,31.8,24.7,09.4,0000.0,0011.56,0005.14,0004.73
2022-12-30 23:23:00,,0815.5,5.01,0.00,22.9,21.6,00.0,31.8,24.7,09.8,0000.0,0011.52,0005.27,0004.85
2022-12-30 23:24:00,,0815.7,5.02,0.00,22.9,21.6,00.0,31.8,24.7,09.9,0000.0,0012.26,0005.45,0005.01
2022-12-30 23:25:00,,0815.7,5.00,0.00,22.9,21.4,00.0,31.8,24.6,09.7,0000.0,0012.81,0005.63,0005.16
2022-12-30 23:26:00,,0815.5,4.98,0.00,22.8,21.2,00.0,31.8,24.5,09.7,0000.0,0012.95,0005.74,0005.29
2022-12-30 23:27:00,,0815.5,5.05,0.00,22.8,21.3,00.0,31.8,24.6,10.0,0000.0,0013.19,0005.94,0005.50
2022-12-30 23:28:00,,0815.9,5.00,0.00,22.9,21.4,00.0,31.8,24.6,10.0,0000.0,0013.44,0006.11,0005.66
2022-12-30 23:29:00,,0815.9,4.97,0.00,22.9,21.5,00.0,31.8,24.7,09.7,0000.0,0013.44,0006.10,0005.69
2022-12-30 23:30:00,,0815.9,4.96,0.00,22.9,21.6,00.0,31.8,24.8,09.6,0000.0,0013.24,0006.01,0005.65
2022-12-30 23:31:00,,0815.6,5.02,0.00,22.9,21.7,00.0,31.8,24.8,09.4,0000.0,0012.48,0005.75,0005.41
2022-12-30 23:32:00,,0815.5,5.04,0.00,22.9,21.5,00.0,31.8,24.7,09.3,0000.0,0011.16,0005.42,0005.10
2022-12-30 23:33:00,,0815.4,4.99,0.00,22.9,21.4,00.0,31.8,24.6,09.4,0000.0,0009.91,0005.13,0004.85
2022-12-30 23:34:00,,0815.5,4.97,0.00,22.8,21.2,00.0,31.8,24.6,09.6,0000.0,0009.44,0004.90,0004.63
2022-12-30 23:35:00,,0815.4,5.06,0.00,22.8,21.1,00.0,31.8,24.5,09.6,0000.0,0008.77,0004.63,0004.38
2022-12-30 23:36:00,,0815.4,5.04,0.00,22.8,21.1,00.0,31.7,24.5,09.6,0000.0,0008.12,0004.37,0004.13
2022-12-30 23:37:00,,0815.3,4.96,0.00,22.8,21.2,00.0,31.7,24.5,09.6,0000.0,0007.71,0004.08,0003.86
2022-12-30 23:38:00,,0815.3,5.04,0.00,22.8,21.2,00.0,31.7,24.5,09.7,0000.0,0007.28,0003.80,0003.59
2022-12-30 23:39:00,,0815.1,5.01,0.00,22.8,21.3,00.0,31.7,24.5,09.7,0000.0,0006.45,0003.49,0003.31
2022-12-30 23:40:00,,0815.0,4.98,0.00,22.8,21.4,00.0,31.7,24.6,09.8,0000.0,0005.80,0003.32,0003.15
2022-12-30 23:41:00,,0815.2,4.99,0.00,22.8,21.3,00.0,31.7,24.5,10.1,0000.0,0006.18,0003.39,0003.19
2022-12-30 23:42:00,,0815.1,4.99,0.00,22.7,21.0,00.0,31.7,24.3,10.0,0000.0,0006.95,0003.74,0003.53
2022-12-30 23:43:00,,0815.3,5.05,0.00,22.7,20.8,00.0,31.7,24.2,09.9,0000.0,0007.76,0004.17,0003.93
2022-12-30 23:44:00,,0815.5,4.98,0.00,22.6,20.6,00.0,31.7,24.2,09.9,0000.0,0009.07,0004.52,0004.23
2022-12-30 23:45:00,,0815.9,4.99,0.00,22.6,20.6,00.0,31.6,24.2,09.8,0000.0,0009.88,0004.82,0004.50
2022-12-30 23:46:00,,0816.0,4.98,0.00,22.6,20.8,00.0,31.6,24.3,09.9,0000.0,0010.16,0005.08,0004.77
2022-12-30 23:47:00,,0816.0,5.01,0.00,22.6,20.9,00.0,31.6,24.3,09.8,0000.0,0010.42,0005.32,0005.02
2022-12-30 23:48:00,,0816.0,5.04,0.00,22.6,21.0,00.0,31.6,24.3,09.6,0000.0,0010.85,0005.63,0005.30
2022-12-30 23:49:00,,0815.9,4.99,0.00,22.6,21.1,00.0,31.6,24.4,09.5,0000.0,0010.95,0005.73,0005.41
2022-12-30 23:50:00,,0815.8,4.97,0.00,22.6,21.0,00.0,31.6,24.3,09.5,0000.0,0011.14,0005.81,0005.47
2022-12-30 23:51:00,,0815.7,4.98,0.00,22.5,20.9,00.0,31.6,24.2,09.5,0000.0,0011.48,0005.96,0005.59
2022-12-30 23:52:00,,0816.0,5.07,0.00,22.5,20.9,00.0,31.5,24.2,09.5,0000.0,0011.49,0005.98,0005.60
2022-12-30 23:53:00,,0815.6,5.00,0.00,22.5,21.0,00.0,31.5,24.3,09.5,0000.0,0011.26,0005.83,0005.45
2022-12-30 23:54:00,,0815.7,4.97,0.00,22.5,21.0,00.0,31.5,24.3,09.5,0000.0,0010.97,0005.61,0005.23
2022-12-30 23:55:00,,0815.9,5.00,0.00,22.6,21.1,00.0,31.5,24.3,09.4,0000.0,0009.99,0005.30,0004.98
2022-12-30 23:56:00,,0816.0,5.01,0.00,22.6,21.2,00.0,31.5,24.3,09.4,0000.0,0008.94,0005.01,0004.71
2022-12-30 23:57:00,,0816.0,5.03,0.00,22.6,21.3,00.0,31.5,24.4,09.5,0000.0,0008.48,0004.68,0004.40
2022-12-30 23:58:00,,0815.9,4.98,0.00,22.6,21.4,00.0,31.5,24.4,09.5,0000.0,0008.02,0004.39,0004.12
2022-12-30 23:59:00,,0816.1,5.01,0.00,22.6,21.4,00.0,31.5,24.4,09.9,0000.0,0008.06,0004.36,0004.05
